Flag for U.S.A. Weather past 2 weeks in Bismarck, North Dakota, U.S.A.

Now
46 °F

Clear.


Feels Like: 45 °F
Forecast: 43 / 72 °F
Wind: 3 mph from North

Location: Bismarck Municipal Airport

Current Time: Sep 17, 2014 at 1:22:42 AM

Latest Report: Sep 17, 2014 at 12:52 AM


Visibility: 10 mi

Pressure: 29.94 "Hg

Humidity: 86%

Dew point: 42 °F

Location of BismarckLocation

Historic Weather in Bismarck — Graph

°F

Bismarck temperature yesterday

Maximum temperature yesterday: 76 °F (at 4:52 PM)
Minimum temperature yesterday: 42 °F (at 4:52 AM)
Average temperature yesterday: 57 °F

Past Weeks' High & Low Weather Summary

 TemperatureHumidityPressure
High90 °F (Sep 8, 4:52 PM)100% (Sep 8, 7:54 AM)30.54 "Hg (Sep 8, 7:54 AM)
Low31 °F (Sep 15, 6:52 AM)23% (Sep 8, 4:52 PM)29.57 "Hg (Sep 4, 12:52 AM)
Average56 °F68%30.06 "Hg
* Reported Sep 1 11:52 PM — Sep 16 11:52 PM, Bismarck, Weather by CustomWeather, © 2014

Note: Actual official high and low records may vary slightly from our data, if they occured in-between our weather recording intervals... More about our weather records

Advertising

Bismarck weather history for previous 24 hours

 ConditionsComfort  
Time TempWeatherWind HumidityBarometerVisibility
11:52 PM
Sep 16
53 °FClear.6 mph77%29.93 "Hg10 mi
10:52 PM52 °FClear.5 mph80%29.93 "Hg10 mi
9:52 PM54 °FClear.6 mph77%29.93 "Hg10 mi
8:52 PM56 °FSunny.7 mph75%29.93 "Hg10 mi
7:52 PM66 °FSunny.5 mph49%29.93 "Hg10 mi
6:52 PM72 °FSunny.No wind38%29.93 "Hg10 mi
5:52 PM74 °FSunny.No wind36%29.93 "Hg9 mi
4:52 PM76 °FSunny.No wind33%29.93 "Hg10 mi
3:52 PM75 °FSunny.3 mph33%29.94 "Hg10 mi
2:52 PM73 °FSunny.5 mph40%29.96 "Hg10 mi
1:52 PM70 °FSunny.N/A42%29.98 "Hg10 mi
12:52 PM67 °FSunny.3 mph47%30.00 "Hg10 mi
11:52 AM63 °FSunny.3 mph52%30.02 "Hg10 mi
10:52 AM59 °FSunny.No wind60%30.04 "Hg10 mi
9:52 AM53 °FSunny.3 mph69%30.05 "Hg10 mi
8:52 AM47 °FSunny.3 mph80%30.06 "Hg6 mi
7:52 AM42 °FClear.5 mph85%30.08 "Hg9 mi
6:52 AM42 °FClear.5 mph85%30.07 "Hg10 mi
5:52 AM42 °FClear.5 mph89%30.07 "Hg10 mi
4:52 AM42 °FClear.5 mph85%30.08 "Hg10 mi
3:52 AM46 °FClear.No wind71%30.09 "Hg10 mi
2:52 AM43 °FClear.3 mph79%30.11 "Hg10 mi
1:52 AM45 °FClear.3 mph76%30.12 "Hg10 mi
Weather by CustomWeather, © 2014

See weather overviewHow to use our weather pages